COSMOS 2251 DEB

Satellite information

Favourite Embed

Satellite Type and Status

DEBRISIN ORBIT

Key statistics

Satellite COSMOS 2251 DEB at a glance.

Uptime

11647

Days in orbit

Revolutions

≈ 14.5

Per day

Orbit

LEO

Low Earth Orbit

Inclination

74.0

Latest

Satellite identification and parameters

Extended collection of information and parameters for COSMOS 2251 DEB.

Object identification

Identified? True

Debris? True

Object name: COSMOS 2251 DEB

International designator: 1993-036AAZ

Object number (NORAD): 34796

Object ID (CCSDS): 34796

Country: COMMONWEALTH OF INDEPENDENT STATES (CIS)

Current information (Y/N): Y

RCS size: SMALL

Orbital parameters

Period: 99.491 minutes

Inclination: 74.0304 deg

SMA: 7112.4 km

Apoapsis: 807.324 km

Periapsis: 661.206 km

RAAN: 269.9826 deg

Eccentricy: 0.0102721

Argument of periapsis: 67.115 deg

Mean anomaly: 82.317 deg

Mean motion: 14.47366482 rev/day

Mean motion (dot): 0.0000371 rev/day2

B* drag term: 0.00095434 1/REarth

Two-line elements (TLE)

Creation date: May 6, 2025, 3:54 a.m.

Reference frame: TEME

Reference center: EARTH

Epoch: May 5, 2025, 7:54 p.m. UTC

TLE line 0: 0 COSMOS 2251 DEB

TLE line 1: 1 34796U 93036AAZ 25125.82931521 .00003710 00000-0 95434-3 0 9995

TLE line 2: 2 34796 74.0304 269.9826 0102721 67.1150 82.3170 14.47366482848303

Live tracking on map

Real-time ground track for satellite COSMOS 2251 DEB.

In-orbit conjunctions

A list of the most updated potential collisions computed for object COSMOS 2251 DEB.

Target Orbit TCA Probability of collision Miss distance Type
COSMOS 807 LEO 2024-12-23 00:57:19 0.0001607902 528.0 (m) PAYLOAD
PEGASUS DEB LEO 2024-11-13 07:15:46 0.00028621 746.0 (m) DEBRIS
NOAA 12 SSO 2024-09-04 20:17:33 0.0002341862 517.0 (m) PAYLOAD
CZ-6A DEB SSO 2024-07-26 17:44:50 0.0001118794 36.0 (m) DEBRIS

Associated space launch

Military communications satellite. Destroyed in a collision with Iridium 33.

COSMOS 2251 DEB was lifted into orbit during the mission ‘Kosmos-3M | Strela-2M 51’, on board a Kosmos-3M space rocket.

The launch took place on June 16, 1993, 4:17 a.m. from 132/1 (132L).

For more information about the launch, click the button.

Launch to space Kosmos-3M | Strela-2M 51
Kosmos-3M | Strela-2M 51

Agency: N/A

Status: Launch Successful

Launch date: June 16, 1993, 4:17 a.m. UTC

Rocket: Kosmos-3M

Launch pad: 132/1 (132L)

Location: Plesetsk Cosmodrome, Russian Federation

...

Latest news about this satellite

There are no fresh news available about this satellite. Check back as we update our databases every day.


Newsletter sign-up

Weekly statistics, charts and insights to help you stay on top of the space industry.